| time (UTC) | temp F | wind direction | speed MPH | gust MPH | rain 1hr in | rain 24hr in | rain mn in | humidity % | barometer mb |
| 20260506170330 | 63 | 271 | 1.0 | 4.0 | 0.00 | 0.00 | 0.00 | 70 | |
| 20260506165829 | 63 | 121 | 0.0 | 3.0 | 0.00 | 0.00 | 0.00 | 71 | |
| 20260506165326 | 63 | 61 | 1.0 | 3.0 | 0.00 | 0.00 | 0.00 | 72 | |
| 20260506164828 | 62 | 94 | 1.0 | 6.0 | 0.00 | 0.00 | 0.00 | 73 | |
| 20260506164326 | 62 | 46 | 1.0 | 6.0 | 0.00 | 0.00 | 0.00 | 72 | |
| 20260506163841 | 62 | 174 | 1.0 | 6.0 | 0.00 | 0.01 | 0.00 | 75 | |
| 20260506163826 | 62 | 162 | 1.0 | 6.0 | 0.00 | 0.01 | 0.00 | 73 | |
| 20260506163326 | 62 | 153 | 2.0 | 6.0 | 0.00 | 0.01 | 0.00 | 74 | |
| 20260506162328 | 61 | 108 | 0.0 | 2.0 | 0.00 | 0.01 | 0.00 | 76 | |
| 20260506161826 | 60 | 46 | 1.0 | 4.0 | 0.00 | 0.01 | 0.00 | 76 | |
| 20260506161327 | 60 | 90 | 2.0 | 4.0 | 0.00 | 0.01 | 0.00 | 77 | |
| 20260506160826 | 60 | 98 | 1.0 | 4.0 | 0.00 | 0.01 | 0.00 | 79 | |
| 20260506160324 | 59 | 174 | 1.0 | 3.0 | 0.00 | 0.01 | 0.00 | 79 | |
| 20260506155824 | 58 | 327 | 1.0 | 3.0 | 0.00 | 0.01 | 0.00 | 80 | |
| 20260506155331 | 57 | 225 | 0.0 | 3.0 | 0.00 | 0.01 | 0.00 | 80 | |
| 20260506155324 | 58 | 317 | 0.0 | 3.0 | 0.00 | 0.01 | 0.00 | 80 | |
| 20260506154325 | 58 | 225 | 2.0 | 5.0 | 0.00 | 0.01 | 0.00 | 80 | |
| 20260506153824 | 57 | 225 | 2.0 | 5.0 | 0.00 | 0.01 | 0.00 | 81 | |
| 20260506153325 | 57 | 220 | 1.0 | 4.0 | 0.00 | 0.01 | 0.00 | 81 | |
| 20260506152826 | 57 | 251 | 0.0 | 3.0 | 0.00 | 0.01 | 0.00 | 82 | |
| 20260506152324 | 57 | 173 | 0.0 | 1.0 | 0.00 | 0.01 | 0.00 | 83 | |
| 20260506151824 | 56 | 180 | 0.0 | 3.0 | 0.00 | 0.01 | 0.00 | 84 | |
| 20260506151323 | 56 | 182 | 1.0 | 3.0 | 0.00 | 0.01 | 0.00 | 85 | |
| 20260506150822 | 56 | 224 | 1.0 | 4.0 | 0.00 | 0.01 | 0.00 | 85 | |
| 20260506150322 | 56 | 225 | 0.0 | 4.0 | 0.00 | 0.01 | 0.00 | 85 | |
| 20260506145822 | 56 | 200 | 0.0 | 2.0 | 0.00 | 0.01 | 0.00 | 85 | |
| 20260506145323 | 56 | 187 | 0.0 | 3.0 | 0.00 | 0.01 | 0.00 | 85 | |
| 20260506144824 | 55 | 187 | 1.0 | 3.0 | 0.00 | 0.01 | 0.00 | 85 | |
| 20260506144323 | 55 | 187 | 1.0 | 3.0 | 0.00 | 0.01 | 0.00 | 86 | |
| 20260506143823 | 55 | 188 | 1.0 | 3.0 | 0.00 | 0.01 | 0.00 | 86 | |
| 20260506143323 | 55 | 229 | 1.0 | 4.0 | 0.00 | 0.01 | 0.00 | 86 | |
| 20260506142821 | 55 | 211 | 1.0 | 4.0 | 0.00 | 0.01 | 0.00 | 86 | |
| 20260506142321 | 55 | 259 | 0.0 | 2.0 | 0.00 | 0.01 | 0.00 | 86 | |
| 20260506141821 | 55 | 225 | 1.0 | 5.0 | 0.00 | 0.01 | 0.00 | 86 | |
| 20260506141322 | 55 | 214 | 1.0 | 5.0 | 0.00 | 0.01 | 0.00 | 86 | |
| 20260506140820 | 55 | 171 | 0.0 | 1.0 | 0.00 | 0.01 | 0.00 | 86 | |
| 20260506140321 | 55 | 164 | 0.0 | 2.0 | 0.00 | 0.01 | 0.00 | 86 | |
| 20260506135820 | 55 | 164 | 0.0 | 2.0 | 0.00 | 0.01 | 0.00 | 86 | |
| 20260506135321 | 55 | 194 | 0.0 | 1.0 | 0.00 | 0.01 | 0.00 | 86 | |
| 20260506134820 | 54 | 321 | 0.0 | 0.0 | 0.00 | 0.01 | 0.00 | 86 | |
| 20260506134320 | 54 | 321 | 0.0 | 0.0 | 0.00 | 0.01 | 0.00 | 86 | |
| 20260506133821 | 54 | 321 | 0.0 | 0.0 | 0.00 | 0.01 | 0.00 | 86 | |
| 20260506133318 | 54 | 321 | 0.0 | 0.0 | 0.00 | 0.01 | 0.00 | 85 | |
| 20260506132818 | 54 | 321 | 0.0 | 0.0 | 0.00 | 0.01 | 0.00 | 85 | |
| 20260506132327 | 54 | 321 | 0.0 | 0.0 | 0.00 | 0.01 | 0.00 | 85 | |
| 20260506132319 | 54 | 321 | 0.0 | 0.0 | 0.00 | 0.01 | 0.00 | 85 | |
| 20260506131818 | 54 | 321 | 0.0 | 0.0 | 0.00 | 0.01 | 0.00 | 85 | |
| 20260506130827 | 54 | 321 | 0.0 | 0.0 | 0.00 | 0.01 | 0.00 | 85 | |
| 20260506130819 | 54 | 321 | 0.0 | 0.0 | 0.00 | 0.01 | 0.00 | 85 | |
| 20260506125827 | 54 | 321 | 0.0 | 0.0 | 0.00 | 0.01 | 0.00 | 85 | |
| 20260506125819 | 54 | 321 | 0.0 | 0.0 | 0.00 | 0.01 | 0.00 | 85 | |
| 20260506124825 | 54 | 321 | 0.0 | 0.0 | 0.00 | 0.01 | 0.00 | 85 | |
| 20260506124817 | 54 | 321 | 0.0 | 0.0 | 0.00 | 0.01 | 0.00 | 85 | |
| 20260506123816 | 54 | 321 | 0.0 | 0.0 | 0.00 | 0.01 | 0.00 | 85 | |
| 20260506123318 | 54 | 321 | 0.0 | 0.0 | 0.00 | 0.01 | 0.00 | 85 | |
| 20260506122816 | 54 | 321 | 0.0 | 0.0 | 0.00 | 0.01 | 0.00 | 85 | |
| 20260506122325 | 54 | 321 | 0.0 | 0.0 | 0.00 | 0.01 | 0.00 | 85 | |
| 20260506122316 | 54 | 321 | 0.0 | 0.0 | 0.00 | 0.01 | 0.00 | 85 | |
| 20260506121316 | 53 | 321 | 0.0 | 0.0 | 0.00 | 0.01 | 0.00 | 85 | |
| 20260506120815 | 53 | 321 | 0.0 | 0.0 | 0.00 | 0.01 | 0.00 | 85 | |
| 20260506120315 | 53 | 321 | 0.0 | 0.0 | 0.00 | 0.01 | 0.00 | 85 | |
| 20260506115816 | 53 | 321 | 0.0 | 0.0 | 0.00 | 0.01 | 0.00 | 85 | |
| 20260506115312 | 53 | 321 | 0.0 | 0.0 | 0.00 | 0.01 | 0.00 | 85 | |
| 20260506114811 | 53 | 321 | 0.0 | 0.0 | 0.00 | 0.01 | 0.00 | 85 | |
| 20260506114313 | 53 | 321 | 0.0 | 0.0 | 0.00 | 0.01 | 0.00 | 84 | |
| 20260506113811 | 53 | 321 | 0.0 | 0.0 | 0.00 | 0.01 | 0.00 | 84 | |
| 20260506113311 | 53 | 321 | 0.0 | 0.0 | 0.00 | 0.01 | 0.00 | 85 | |
| 20260506112811 | 53 | 321 | 0.0 | 0.0 | 0.00 | 0.01 | 0.00 | 84 | |
| 20260506112310 | 53 | 321 | 0.0 | 0.0 | 0.00 | 0.01 | 0.00 | 84 | |
| 20260506111816 | 53 | 321 | 0.0 | 0.0 | 0.00 | 0.01 | 0.00 | 84 | |
| 20260506111809 | 53 | 321 | 0.0 | 0.0 | 0.00 | 0.01 | 0.00 | 84 | |
| 20260506110806 | 53 | 321 | 0.0 | 0.0 | 0.00 | 0.01 | 0.00 | 84 | |
| 20260506110307 | 53 | 321 | 0.0 | 0.0 | 0.00 | 0.01 | 0.00 | 84 | |
| 20260506105805 | 53 | 321 | 0.0 | 0.0 | 0.00 | 0.01 | 0.00 | 84 | |
| 20260506105305 | 53 | 321 | 0.0 | 0.0 | 0.00 | 0.02 | 0.00 | 84 | |
| 20260506104804 | 53 | 321 | 0.0 | 0.0 | 0.00 | 0.02 | 0.00 | 84 | |
| 20260506104302 | 53 | 321 | 0.0 | 0.0 | 0.00 | 0.02 | 0.00 | 83 | |
| 20260506103803 | 53 | 275 | 0.0 | 0.0 | 0.00 | 0.02 | 0.00 | 83 | |
| 20260506103302 | 53 | 275 | 0.0 | 0.0 | 0.00 | 0.02 | 0.00 | 83 | |
| 20260506102812 | 53 | 275 | 0.0 | 0.0 | 0.00 | 0.02 | 0.00 | 83 | |
| 20260506102804 | 53 | 275 | 0.0 | 0.0 | 0.00 | 0.02 | 0.00 | 83 | |
| 20260506101800 | 53 | 275 | 0.0 | 0.0 | 0.00 | 0.02 | 0.00 | 83 | |
| 20260506101258 | 52 | 275 | 0.0 | 0.0 | 0.00 | 0.02 | 0.00 | 83 | |
| 20260506100759 | 52 | 275 | 0.0 | 0.0 | 0.00 | 0.03 | 0.00 | 82 | |
| 20260506100259 | 52 | 275 | 0.0 | 1.0 | 0.00 | 0.03 | 0.00 | 82 | |
| 20260506095756 | 52 | 275 | 0.0 | 1.0 | 0.00 | 0.03 | 0.00 | 82 | |
| 20260506095257 | 52 | 275 | 0.0 | 2.0 | 0.00 | 0.04 | 0.00 | 82 | |
| 20260506094803 | 52 | 240 | 0.0 | 0.0 | 0.00 | 0.04 | 0.00 | 82 | |
| 20260506094756 | 52 | 275 | 0.0 | 2.0 | 0.00 | 0.04 | 0.00 | 82 | |
| 20260506093753 | 52 | 240 | 0.0 | 2.0 | 0.00 | 0.04 | 0.00 | 82 | |
| 20260506093301 | 52 | 258 | 0.0 | 0.0 | 0.00 | 0.04 | 0.00 | 81 | |
| 20260506093253 | 52 | 240 | 0.0 | 2.0 | 0.00 | 0.04 | 0.00 | 82 | |
| 20260506092913 | 52 | 258 | 0.0 | 0.0 | 0.00 | 0.04 | 0.00 | 81 | |
| 20260506091750 | 52 | 260 | 0.0 | 0.0 | 0.00 | 0.04 | 0.00 | 81 | |
| 20260506091251 | 53 | 260 | 0.0 | 1.0 | 0.00 | 0.04 | 0.00 | 80 | |
| 20260506090752 | 53 | 260 | 0.0 | 1.0 | 0.00 | 0.04 | 0.00 | 80 | |
| 20260506090250 | 53 | 267 | 0.0 | 0.0 | 0.00 | 0.04 | 0.00 | 80 | |
| 20260506085800 | 53 | 267 | 0.0 | 0.0 | 0.00 | 0.04 | 0.00 | 80 | |
| 20260506085752 | 53 | 267 | 0.0 | 0.0 | 0.00 | 0.04 | 0.00 | 80 | |
| 20260506085250 | 53 | 267 | 0.0 | 0.0 | 0.00 | 0.04 | 0.00 | 80 | |
| 20260506084909 | 53 | 267 | 0.0 | 0.0 | 0.00 | 0.04 | 0.00 | 80 | |
| 20260506083755 | 53 | 267 | 0.0 | 0.0 | 0.00 | 0.04 | 0.00 | 80 | |
| 20260506083747 | 53 | 267 | 0.0 | 0.0 | 0.00 | 0.04 | 0.00 | 80 | |
| 20260506082743 | 53 | 267 | 0.0 | 0.0 | 0.00 | 0.04 | 0.00 | 80 | |
| 20260506082245 | 54 | 267 | 0.0 | 0.0 | 0.00 | 0.04 | 0.00 | 80 | |
| 20260506081743 | 54 | 267 | 0.0 | 0.0 | 0.00 | 0.04 | 0.00 | 80 | |
| 20260506081245 | 54 | 267 | 0.0 | 0.0 | 0.00 | 0.04 | 0.00 | 80 | |
| 20260506080745 | 54 | 267 | 0.0 | 0.0 | 0.00 | 0.04 | 0.00 | 80 | |
| 20260506080245 | 54 | 267 | 0.0 | 1.0 | 0.00 | 0.04 | 0.00 | 80 | |
| 20260506073245 | 55 | 252 | 0.0 | 1.0 | 0.00 | 0.04 | 0.00 | 80 | |
| 20260506072751 | 55 | 249 | 0.0 | 2.0 | 0.00 | 0.04 | 0.00 | 80 | |
| 20260506072744 | 55 | 252 | 0.0 | 2.0 | 0.00 | 0.04 | 0.00 | 80 | |
| 20260506071744 | 55 | 249 | 0.0 | 2.0 | 0.00 | 0.04 | 0.00 | 80 | |
| 20260506071244 | 55 | 249 | 0.0 | 0.0 | 0.00 | 0.04 | 0.00 | 79 | |
| 20260506070744 | 55 | 249 | 1.0 | 7.0 | 0.00 | 0.04 | 0.00 | 79 | |
| 20260506070245 | 56 | 249 | 1.0 | 7.0 | 0.00 | 0.04 | 0.00 | 79 | |
| 20260506062240 | 56 | 248 | 2.0 | 7.0 | 0.00 | 0.04 | 0.04 | 78 | |
| 20260506061740 | 56 | 240 | 1.0 | 7.0 | 0.00 | 0.04 | 0.04 | 78 | |
| 20260506061247 | 57 | 188 | 0.0 | 0.0 | 0.00 | 0.04 | 0.04 | 78 | |
| 20260506061239 | 57 | 188 | 0.0 | 0.0 | 0.00 | 0.04 | 0.04 | 78 | |
| 20260506060902 | 57 | 188 | 1.0 | 4.0 | 0.00 | 0.04 | 0.04 | 78 | |
| 20260506060240 | 57 | 188 | 0.0 | 1.0 | 0.00 | 0.04 | 0.04 | 78 | |
| 20260506051237 | 57 | 318 | 2.0 | 11.0 | 0.00 | 0.04 | 0.04 | 77 | |
| 20260506050735 | 57 | 243 | 3.0 | 11.0 | 0.00 | 0.04 | 0.04 | 78 | |
| 20260506050244 | 58 | 165 | 1.0 | 6.0 | 0.00 | 0.04 | 0.04 | 77 | |
| 20260506050237 | 57 | 242 | 2.0 | 8.0 | 0.00 | 0.04 | 0.04 | 77 | |
| 20260506044736 | 58 | 218 | 2.0 | 7.0 | 0.00 | 0.04 | 0.04 | 77 | |
| 20260506044235 | 58 | 188 | 3.0 | 8.0 | 0.00 | 0.04 | 0.04 | 77 | |
| 20260506043736 | 58 | 171 | 3.0 | 8.0 | 0.00 | 0.04 | 0.04 | 77 | |
| 20260506043236 | 58 | 175 | 2.0 | 7.0 | 0.00 | 0.04 | 0.04 | 77 | |
| 20260506042743 | 58 | 223 | 2.0 | 8.0 | 0.00 | 0.04 | 0.04 | 76 | |
| 20260506042735 | 58 | 273 | 2.0 | 8.0 | 0.00 | 0.04 | 0.04 | 76 | |
| 20260506041733 | 58 | 282 | 2.0 | 6.0 | 0.00 | 0.04 | 0.04 | 76 | |
| 20260506041234 | 58 | 210 | 2.0 | 6.0 | 0.00 | 0.04 | 0.04 | 76 | |
| 20260506040740 | 58 | 261 | 3.0 | 10.0 | 0.00 | 0.04 | 0.04 | 75 | |
| 20260506040733 | 58 | 270 | 2.0 | 9.0 | 0.00 | 0.04 | 0.04 | 76 | |
| 20260506040233 | 58 | 208 | 3.0 | 9.0 | 0.00 | 0.04 | 0.04 | 76 | |
| 20260506035233 | 58 | 272 | 3.0 | 10.0 | 0.00 | 0.04 | 0.04 | 75 | |
| 20260506034733 | 58 | 235 | 2.0 | 10.0 | 0.00 | 0.04 | 0.04 | 75 | |
| 20260506034233 | 58 | 173 | 2.0 | 10.0 | 0.00 | 0.04 | 0.04 | 75 | |
| 20260506033734 | 58 | 228 | 3.0 | 9.0 | 0.00 | 0.04 | 0.04 | 75 | |
| 20260506033231 | 59 | 246 | 2.0 | 8.0 | 0.00 | 0.04 | 0.04 | 75 | |
| 20260506032731 | 59 | 188 | 2.0 | 9.0 | 0.00 | 0.04 | 0.04 | 74 | |
| 20260506032231 | 59 | 271 | 1.0 | 9.0 | 0.00 | 0.04 | 0.04 | 74 | |
| 20260506031731 | 59 | 181 | 1.0 | 8.0 | 0.00 | 0.04 | 0.04 | 74 | |
| 20260506031229 | 59 | 241 | 3.0 | 11.0 | 0.00 | 0.04 | 0.04 | 74 | |
| 20260506030729 | 59 | 134 | 3.0 | 12.0 | 0.00 | 0.04 | 0.04 | 74 | |
| 20260506030229 | 59 | 183 | 3.0 | 12.0 | 0.00 | 0.04 | 0.04 | 74 | |
| 20260506025736 | 59 | 196 | 4.0 | 11.0 | 0.00 | 0.04 | 0.04 | 73 | |
| 20260506025729 | 59 | 252 | 3.0 | 9.0 | 0.00 | 0.04 | 0.04 | 74 | |
| 20260506024730 | 59 | 243 | 4.0 | 11.0 | 0.00 | 0.04 | 0.04 | 73 | |
| 20260506024230 | 59 | 171 | 4.0 | 14.0 | 0.00 | 0.04 | 0.04 | 73 | |
| 20260506023729 | 59 | 265 | 4.0 | 14.0 | 0.00 | 0.04 | 0.04 | 73 | |
| 20260506023229 | 60 | 259 | 4.0 | 12.0 | 0.00 | 0.04 | 0.04 | 73 | |
| 20260506022730 | 60 | 223 | 5.0 | 12.0 | 0.00 | 0.04 | 0.04 | 72 | |
| 20260506022228 | 60 | 229 | 5.0 | 11.0 | 0.00 | 0.04 | 0.04 | 72 | |
| 20260506021729 | 60 | 208 | 3.0 | 11.0 | 0.00 | 0.04 | 0.04 | 72 | |
| 20260506021230 | 60 | 289 | 3.0 | 9.0 | 0.00 | 0.04 | 0.04 | 71 | |
| 20260506020729 | 60 | 200 | 4.0 | 10.0 | 0.00 | 0.04 | 0.04 | 71 | |
| 20260506020236 | 60 | 183 | 4.0 | 11.0 | 0.00 | 0.04 | 0.04 | 71 | |
| 20260506020227 | 60 | 177 | 5.0 | 10.0 | 0.00 | 0.04 | 0.04 | 71 | |
| 20260506015228 | 60 | 238 | 4.0 | 11.0 | 0.00 | 0.04 | 0.04 | 71 | |
| 20260506014728 | 61 | 194 | 5.0 | 16.0 | 0.00 | 0.04 | 0.04 | 71 | |
| 20260506014238 | 61 | 169 | 8.0 | 17.0 | 0.00 | 0.04 | 0.04 | 71 | |
| 20260506014228 | 61 | 194 | 7.0 | 18.0 | 0.00 | 0.04 | 0.04 | 71 | |
| 20260506013727 | 61 | 175 | 8.0 | 18.0 | 0.00 | 0.04 | 0.04 | 70 | |
| 20260506012728 | 61 | 181 | 7.0 | 17.0 | 0.00 | 0.04 | 0.04 | 71 | |
| 20260506012228 | 61 | 169 | 7.0 | 17.0 | 0.00 | 0.04 | 0.04 | 71 | |
| 20260506011729 | 61 | 177 | 6.0 | 17.0 | 0.00 | 0.04 | 0.04 | 70 | |
| 20260506011227 | 61 | 177 | 6.0 | 16.0 | 0.00 | 0.04 | 0.04 | 70 | |
| 20260506010727 | 61 | 198 | 7.0 | 12.0 | 0.00 | 0.04 | 0.04 | 70 | |
| 20260506010228 | 61 | 189 | 6.0 | 12.0 | 0.00 | 0.04 | 0.04 | 71 | |
| 20260506005727 | 61 | 181 | 6.0 | 12.0 | 0.00 | 0.04 | 0.04 | 71 | |
| 20260506005227 | 61 | 181 | 6.0 | 13.0 | 0.00 | 0.04 | 0.04 | 71 | |
| 20260506004727 | 61 | 222 | 6.0 | 13.0 | 0.00 | 0.04 | 0.04 | 71 | |
| 20260506004228 | 61 | 180 | 6.0 | 12.0 | 0.00 | 0.04 | 0.04 | 70 | |
| 20260506003725 | 61 | 173 | 6.0 | 12.0 | 0.00 | 0.04 | 0.04 | 70 | |
| 20260506003226 | 61 | 170 | 6.0 | 12.0 | 0.00 | 0.04 | 0.04 | 70 | |
| 20260506002725 | 61 | 200 | 7.0 | 17.0 | 0.00 | 0.04 | 0.04 | 70 | |
| 20260506002233 | 61 | 256 | 7.0 | 16.0 | 0.00 | 0.04 | 0.04 | 70 | |
| 20260506002225 | 61 | 189 | 6.0 | 17.0 | 0.00 | 0.04 | 0.04 | 71 | |
| 20260506001225 | 61 | 171 | 7.0 | 14.0 | 0.00 | 0.04 | 0.04 | 70 | |
| 20260506000725 | 62 | 194 | 5.0 | 13.0 | 0.00 | 0.04 | 0.04 | 70 | |
| 20260506000226 | 62 | 169 | 3.0 | 10.0 | 0.00 | 0.04 | 0.04 | 70 | |
| 20260505235725 | 62 | 208 | 5.0 | 14.0 | 0.00 | 0.04 | 0.04 | 70 | |
| 20260505235225 | 62 | 211 | 6.0 | 14.0 | 0.00 | 0.04 | 0.04 | 70 | |
| 20260505234724 | 62 | 180 | 5.0 | 13.0 | 0.00 | 0.04 | 0.04 | 69 | |
| 20260505234224 | 62 | 264 | 6.0 | 15.0 | 0.00 | 0.04 | 0.04 | 69 | |
| 20260505233730 | 62 | 196 | 8.0 | 15.0 | 0.00 | 0.04 | 0.04 | 71 | |
| 20260505233721 | 62 | 203 | 5.0 | 15.0 | 0.00 | 0.04 | 0.04 | 69 | |
| 20260505233222 | 62 | 204 | 4.0 | 9.0 | 0.00 | 0.04 | 0.04 | 70 | |
| 20260505232719 | 62 | 192 | 6.0 | 13.0 | 0.00 | 0.04 | 0.04 | 70 | |
| 20260505231719 | 62 | 188 | 7.0 | 15.0 | 0.00 | 0.04 | 0.04 | 70 | |
| 20260505231219 | 62 | 194 | 6.0 | 17.0 | 0.00 | 0.04 | 0.04 | 70 | |
| 20260505230718 | 62 | 179 | 7.0 | 17.0 | 0.00 | 0.04 | 0.04 | 70 | |
| 20260505230219 | 62 | 182 | 6.0 | 12.0 | 0.00 | 0.04 | 0.04 | 69 | |
| 20260505225720 | 62 | 190 | 6.0 | 12.0 | 0.00 | 0.04 | 0.04 | 70 | |
| 20260505225219 | 62 | 216 | 7.0 | 15.0 | 0.00 | 0.04 | 0.04 | 70 | |
| 20260505224719 | 62 | 195 | 6.0 | 15.0 | 0.00 | 0.04 | 0.04 | 69 | |
| 20260505224218 | 62 | 192 | 6.0 | 13.0 | 0.00 | 0.04 | 0.04 | 70 | |
| 20260505223719 | 62 | 215 | 7.0 | 13.0 | 0.00 | 0.04 | 0.04 | 69 | |
| 20260505223218 | 62 | 176 | 7.0 | 14.0 | 0.00 | 0.04 | 0.04 | 70 | |
| 20260505222719 | 62 | 229 | 9.0 | 15.0 | 0.00 | 0.04 | 0.04 | 70 | |
| 20260505222219 | 62 | 158 | 9.0 | 15.0 | 0.00 | 0.04 | 0.04 | 70 | |
| 20260505221720 | 62 | 176 | 8.0 | 15.0 | 0.00 | 0.04 | 0.04 | 71 | |
| 20260505221219 | 62 | 221 | 6.0 | 15.0 | 0.00 | 0.04 | 0.04 | 71 | |
| 20260505220720 | 62 | 227 | 5.0 | 14.0 | 0.00 | 0.04 | 0.04 | 72 | |
| 20260505220228 | 61 | 188 | 6.0 | 13.0 | 0.00 | 0.04 | 0.04 | 72 | |
| 20260505220219 | 62 | 225 | 6.0 | 14.0 | 0.00 | 0.04 | 0.04 | 73 | |
| 20260505215219 | 61 | 274 | 6.0 | 14.0 | 0.00 | 0.04 | 0.04 | 73 | |
| 20260505214727 | 61 | 290 | 6.0 | 12.0 | 0.00 | 0.04 | 0.04 | 74 | |
| 20260505214719 | 61 | 244 | 6.0 | 14.0 | 0.00 | 0.04 | 0.04 | 73 | |
| 20260505213718 | 61 | 208 | 6.0 | 13.0 | 0.00 | 0.04 | 0.04 | 74 | |
| 20260505213218 | 61 | 251 | 8.0 | 16.0 | 0.00 | 0.04 | 0.04 | 74 | |
| 20260505212720 | 61 | 165 | 7.0 | 16.0 | 0.00 | 0.04 | 0.04 | 74 | |
| 20260505212219 | 60 | 182 | 5.0 | 13.0 | 0.00 | 0.04 | 0.04 | 74 | |
| 20260505211718 | 60 | 238 | 6.0 | 11.0 | 0.00 | 0.04 | 0.04 | 74 | |
| 20260505211219 | 60 | 171 | 7.0 | 14.0 | 0.00 | 0.04 | 0.04 | 74 | |
| 20260505210720 | 60 | 186 | 8.0 | 14.0 | 0.00 | 0.04 | 0.04 | 75 | |
| 20260505210218 | 60 | 190 | 8.0 | 13.0 | 0.00 | 0.04 | 0.04 | 75 | |
| 20260505205727 | 60 | 186 | 6.0 | 14.0 | 0.00 | 0.04 | 0.04 | 76 | |
| 20260505205719 | 60 | 186 | 8.0 | 14.0 | 0.00 | 0.04 | 0.04 | 75 | |
| 20260505204718 | 60 | 167 | 6.0 | 11.0 | 0.00 | 0.04 | 0.04 | 76 | |
| 20260505204227 | 59 | 163 | 6.0 | 13.0 | 0.00 | 0.04 | 0.04 | 75 | |
| 20260505204219 | 59 | 199 | 6.0 | 13.0 | 0.00 | 0.04 | 0.04 | 75 | |
| 20260505203842 | 60 | 187 | 5.0 | 13.0 | 0.00 | 0.04 | 0.04 | 75 | |
| 20260505203344 | 60 | 179 | 6.0 | 14.0 | 0.00 | 0.04 | 0.04 | 75 | |
| 20260505202219 | 60 | 168 | 5.0 | 14.0 | 0.00 | 0.04 | 0.04 | 75 | |
| 20260505201718 | 60 | 199 | 4.0 | 12.0 | 0.00 | 0.04 | 0.04 | 76 | |
| 20260505201219 | 60 | 234 | 5.0 | 13.0 | 0.00 | 0.04 | 0.04 | 76 | |
| 20260505200718 | 60 | 210 | 5.0 | 13.0 | 0.00 | 0.04 | 0.04 | 77 | |
| 20260505200219 | 60 | 227 | 5.0 | 13.0 | 0.00 | 0.04 | 0.04 | 78 | |
| 20260505195726 | 59 | 173 | 3.0 | 8.0 | 0.00 | 0.04 | 0.04 | 80 | |
| 20260505195718 | 60 | 191 | 4.0 | 10.0 | 0.00 | 0.04 | 0.04 | 79 | |
| 20260505194719 | 59 | 238 | 3.0 | 12.0 | 0.00 | 0.04 | 0.04 | 80 | |
| 20260505194217 | 59 | 239 | 5.0 | 12.0 | 0.00 | 0.04 | 0.04 | 80 | |
| 20260505193717 | 59 | 217 | 5.0 | 12.0 | 0.00 | 0.04 | 0.04 | 81 | |
| 20260505193216 | 59 | 202 | 5.0 | 12.0 | 0.00 | 0.04 | 0.04 | 81 | |
| 20260505192717 | 59 | 194 | 4.0 | 11.0 | 0.00 | 0.04 | 0.04 | 81 | |
| 20260505192218 | 59 | 230 | 4.0 | 11.0 | 0.00 | 0.04 | 0.04 | 81 | |
| 20260505191717 | 58 | 194 | 4.0 | 9.0 | 0.00 | 0.04 | 0.04 | 81 | |
| 20260505191215 | 58 | 205 | 4.0 | 9.0 | 0.00 | 0.04 | 0.04 | 81 | |
| 20260505190716 | 58 | 219 | 3.0 | 9.0 | 0.00 | 0.04 | 0.04 | 82 | |
| 20260505190216 | 58 | 270 | 3.0 | 8.0 | 0.00 | 0.04 | 0.04 | 82 | |
| 20260505185717 | 58 | 240 | 4.0 | 8.0 | 0.00 | 0.04 | 0.04 | 82 | |
| 20260505185223 | 58 | 182 | 4.0 | 9.0 | 0.00 | 0.04 | 0.04 | 82 | |
| 20260505185215 | 58 | 220 | 5.0 | 9.0 | 0.00 | 0.04 | 0.04 | 82 | |
| 20260505184221 | 58 | 218 | 3.0 | 8.0 | 0.00 | 0.04 | 0.04 | 83 | |
| 20260505184214 | 58 | 165 | 3.0 | 9.0 | 0.00 | 0.04 | 0.04 | 83 | |
| 20260505183215 | 58 | 181 | 3.0 | 8.0 | 0.00 | 0.04 | 0.04 | 84 | |
| 20260505182714 | 58 | 207 | 3.0 | 7.0 | 0.00 | 0.04 | 0.04 | 84 | |
| 20260505182214 | 58 | 229 | 3.0 | 7.0 | 0.00 | 0.04 | 0.04 | 85 | |
| 20260505181714 | 58 | 222 | 4.0 | 9.0 | 0.00 | 0.04 | 0.04 | 85 | |
| 20260505181215 | 57 | 182 | 4.0 | 9.0 | 0.00 | 0.04 | 0.04 | 86 | |
| 20260505180714 | 57 | 211 | 5.0 | 10.0 | 0.00 | 0.04 | 0.04 | 86 | |
| 20260505180215 | 57 | 198 | 5.0 | 10.0 | 0.00 | 0.04 | 0.04 | 86 | |
| 20260505175726 | 57 | 205 | 3.0 | 6.0 | 0.00 | 0.04 | 0.04 | 88 | |
| 20260505175714 | 57 | 184 | 5.0 | 10.0 | 0.00 | 0.04 | 0.04 | 87 | |
| 20260505175213 | 57 | 168 | 4.0 | 9.0 | 0.00 | 0.04 | 0.04 | 87 | |
| 20260505174213 | 57 | 179 | 3.0 | 6.0 | 0.00 | 0.04 | 0.04 | 88 | |
| 20260505173720 | 56 | 199 | 3.0 | 8.0 | 0.01 | 0.04 | 0.04 | 89 | |
| 20260505173713 | 56 | 220 | 3.0 | 8.0 | 0.01 | 0.04 | 0.04 | 88 | |
| 20260505172712 | 56 | 225 | 2.0 | 5.0 | 0.01 | 0.04 | 0.04 | 89 | |
| 20260505172212 | 56 | 178 | 2.0 | 5.0 | 0.01 | 0.04 | 0.04 | 89 | |
| 20260505171713 | 56 | 205 | 2.0 | 7.0 | 0.01 | 0.04 | 0.04 | 89 | |
| 20260505171214 | 56 | 236 | 4.0 | 8.0 | 0.01 | 0.04 | 0.04 | 89 | |
| 20260505170714 | 55 | 232 | 4.0 | 8.0 | 0.01 | 0.04 | 0.04 | 89 |